EW7438 Veracruz MX current weather conditions

sailwx.info

Wind from 101 at 0 knots gusting 2

Air temperature 27.8° C
Dewpoint 24.0° C

Last reported at 2019-Aug-26 06:01 UTC.
Time now 2019-Aug-26 07:11 UTC

Location: N 19°08' W 096°11'.
View on Google Maps.

See reports from other nearby stations

  
Tides and Currents Weather Stations Pressure Air Temp Water Temp Dewpoint Dewpoint Depression Visibility Wind Speed Wind Dir Waves Ship Positions
date/time (UTC)wind fromknots sea level pressurealtimeterstation pressurevisibilityair tempwater tempwave heightnotes
2019-Aug-26 06:01 101 0 gusting 2 27.8
2019-Aug-26 05:46 101 0 gusting 2 27.8
2019-Aug-26 05:31 101 0 gusting 2 27.8
2019-Aug-26 05:15 101 1 gusting 3 27.8
2019-Aug-26 05:01 101 28.3
2019-Aug-26 04:46 101 28.3
2019-Aug-26 04:31 101 28.3
2019-Aug-26 04:16 101 1 gusting 2 28.9
2019-Aug-26 04:01 101 28.9
2019-Aug-26 03:46 101 28.9
2019-Aug-26 03:31 101 28.9
2019-Aug-26 03:16 101 29.4
2019-Aug-26 03:01 101 1 gusting 5 29.4
2019-Aug-26 02:46 103 0 gusting 2 29.4
2019-Aug-26 02:31 103 0 gusting 2 29.4
2019-Aug-26 02:15 103 1 gusting 3 29.4
2019-Aug-26 02:00 103 0 gusting 5 29.4
2019-Aug-26 01:45 103 1 gusting 5 29.4
2019-Aug-26 01:31 108 2 gusting 6 29.4
2019-Aug-26 01:15 107 1 gusting 6 29.4
2019-Aug-26 01:01 103 3 gusting 7 30.0
2019-Aug-26 00:45 110 3 gusting 6 30.0
2019-Aug-26 00:30 099 4 gusting 7 30.6
2019-Aug-26 00:15 109 5 gusting 7 30.6
2019-Aug-26 00:00 105 4 gusting 6 31.1
2019-Aug-25 23:45 100 4 gusting 9 31.7
2019-Aug-25 23:30 092 5 gusting 9 32.2
2019-Aug-25 23:15 105 6 gusting 10 32.2
2019-Aug-25 23:00 080 6 gusting 10 32.8
2019-Aug-25 22:45 101 6 gusting 10 33.3
2019-Aug-25 22:30 104 6 gusting 12 33.3
2019-Aug-25 22:15 119 6 gusting 11 33.3
2019-Aug-25 22:00 106 7 gusting 11 33.3
2019-Aug-25 21:45 120 8 gusting 12 33.3
2019-Aug-25 21:30 093 8 gusting 13 33.3
2019-Aug-25 21:15 082 7 gusting 12 33.9
2019-Aug-25 21:00 094 7 gusting 13 33.3
2019-Aug-25 20:45 082 8 gusting 12 33.9
2019-Aug-25 20:30 114 9 gusting 13 33.9
2019-Aug-25 20:15 065 7 gusting 12 33.9
2019-Aug-25 20:00 092 8 gusting 11 33.3
2019-Aug-25 19:47 090 9 gusting 12 33.9
2019-Aug-25 19:32 069 6 gusting 10 33.9
2019-Aug-25 19:17 086 3 gusting 9 33.9
2019-Aug-25 19:01 081 6 gusting 8 33.9
2019-Aug-25 18:46 095 6 gusting 8 33.3
2019-Aug-25 18:32 078 3 gusting 9 33.3
2019-Aug-25 18:16 105 6 gusting 10 32.8
2019-Aug-25 18:01 092 6 gusting 11 32.8
2019-Aug-25 17:48 094 6 gusting 9 33.3
2019-Aug-25 17:31 081 5 gusting 8 32.8
2019-Aug-25 17:16 107 3 gusting 9 32.8
2019-Aug-25 17:01 106 5 gusting 8 32.2
2019-Aug-25 16:46 113 6 gusting 9 32.2
2019-Aug-25 16:31 086 7 gusting 10 31.7
2019-Aug-25 16:16 109 4 gusting 6 32.2
2019-Aug-25 16:01 164 0 gusting 6 31.7
2019-Aug-25 15:45 105 2 gusting 5 31.1
2019-Aug-25 15:31 111 2 gusting 5 31.1
2019-Aug-25 15:16 146 31.1
2019-Aug-25 15:00 106 1 gusting 3 30.6
2019-Aug-25 14:45 355 30.0
2019-Aug-25 14:30 355 29.4
2019-Aug-25 14:15 355 0 gusting 1 29.4
2019-Aug-25 14:00 355 1 gusting 3 28.9
2019-Aug-25 13:45 355 1 gusting 3 28.9
2019-Aug-25 13:31 015 1 gusting 4 28.9
2019-Aug-25 13:15 015 28.3
2019-Aug-25 13:00 015 27.8
2019-Aug-25 12:46 015 27.2
2019-Aug-25 12:30 015 27.2
2019-Aug-25 12:15 015 27.2
2019-Aug-25 12:00 015 27.2
2019-Aug-25 11:45 015 27.2
2019-Aug-25 11:30 015 1 gusting 2 27.8
2019-Aug-25 11:02 015 27.8
2019-Aug-25 10:46 015 27.2
2019-Aug-25 10:32 015 27.2
2019-Aug-25 10:17 015 27.8
2019-Aug-25 10:02 015 27.2
2019-Aug-25 09:46 015 27.2
2019-Aug-25 09:33 015 0 gusting 1 27.2
2019-Aug-25 09:17 015 27.2
2019-Aug-25 09:02 015 27.8
2019-Aug-25 08:46 015 27.8
2019-Aug-25 08:31 015 0 gusting 1 27.8
2019-Aug-25 08:16 015 0 gusting 1 27.8
2019-Aug-25 08:01 015 0 gusting 1 27.8
2019-Aug-25 07:46 015 28.3
2019-Aug-25 07:31 015 28.3
2019-Aug-25 07:16 015 0 gusting 2 28.3
2019-Aug-25 07:01 015 28.3
2019-Aug-25 06:46 015 28.9
2019-Aug-25 06:30 015 28.9
2019-Aug-25 06:16 100 1 gusting 5 29.4
2019-Aug-25 06:00 101 1 gusting 3 29.4
2019-Aug-25 05:45 101 1 gusting 3 29.4
2019-Aug-25 05:30 101 29.4
2019-Aug-25 05:15 101 0 gusting 2 29.4
2019-Aug-25 05:01 101 28.9
2019-Aug-25 04:45 101 29.4
2019-Aug-25 04:30 101 0 gusting 3 29.4
2019-Aug-25 04:15 101 29.4
2019-Aug-25 04:00 101 1 gusting 5 28.9
2019-Aug-25 03:45 101 2 gusting 5 28.9
2019-Aug-25 03:31 101 1 gusting 3 29.4
2019-Aug-25 03:15 101 0 gusting 2 29.4
2019-Aug-25 03:00 101 28.9
2019-Aug-25 02:45 101 1 gusting 3 29.4
2019-Aug-25 02:30 101 0 gusting 3 29.4
2019-Aug-25 02:15 106 2 gusting 7 29.4
2019-Aug-25 02:00 103 4 gusting 8 30.0
2019-Aug-25 01:45 111 5 gusting 8 30.0
2019-Aug-25 01:30 108 5 gusting 7 29.4
2019-Aug-25 01:15 105 4 gusting 7 30.0
2019-Aug-25 01:00 103 4 gusting 9 30.6
2019-Aug-25 00:45 092 5 gusting 10 30.6
2019-Aug-25 00:30 119 6 gusting 10 30.6
2019-Aug-25 00:15 086 5 gusting 10 31.1
2019-Aug-25 00:00 090 6 gusting 11 31.7
2019-Aug-24 23:45 076 6 gusting 9 31.7
2019-Aug-24 23:30 102 6 gusting 10 32.2
2019-Aug-24 23:15 106 5 gusting 7 32.8
2019-Aug-24 23:00 095 6 gusting 10 32.8
2019-Aug-24 22:45 107 6 gusting 10 32.8
2019-Aug-24 22:32 101 6 gusting 10 32.8
2019-Aug-24 22:16 131 6 gusting 11 33.3
2019-Aug-24 22:02 101 7 gusting 11 33.3
2019-Aug-24 21:47 091 9 gusting 13 33.3
2019-Aug-24 21:32 109 7 gusting 11 33.9
2019-Aug-24 21:16 107 7 gusting 12 33.9
2019-Aug-24 21:02 088 7 gusting 11 33.9
2019-Aug-24 20:46 092 8 gusting 12 33.9
2019-Aug-24 20:32 082 6 gusting 11 34.4
2019-Aug-24 20:16 123 6 gusting 10 34.4
2019-Aug-24 20:01 102 7 gusting 10 33.9
2019-Aug-24 19:46 125 6 gusting 9 34.4
2019-Aug-24 19:31 174 3 gusting 6 34.4
2019-Aug-24 19:16 179 2 gusting 7 33.9
2019-Aug-24 18:30 186 4 gusting 6 33.9
2019-Aug-24 18:00 185 1 gusting 6 33.3
2019-Aug-24 17:31 180 3 gusting 7 32.8
2019-Aug-24 17:17 196 2 gusting 5 32.2
2019-Aug-24 17:00 238 0 gusting 5 31.7
2019-Aug-24 16:32 188 2 gusting 6 31.7
2019-Aug-24 16:02 159 1 gusting 6 30.6
2019-Aug-24 15:45 143 4 gusting 7 30.0
2019-Aug-24 15:16 101 3 gusting 6 30.0
2019-Aug-24 14:45 160 2 gusting 6 28.9
2019-Aug-24 14:15 207 1 gusting 3 28.3
2019-Aug-24 13:46 210 0 gusting 2 27.2
2019-Aug-24 13:30 237 1 gusting 3 26.7
2019-Aug-24 13:00 134 1 gusting 3 26.7
2019-Aug-24 12:31 119 0 gusting 3 26.1
2019-Aug-24 11:45 274 1 gusting 2 25.0
2019-Aug-24 11:16 274 25.6
2019-Aug-24 10:16 274 0 gusting 1 26.1
2019-Aug-24 09:45 274 26.1
2019-Aug-24 09:32 274 0 gusting 1 26.1
2019-Aug-24 09:15 274 0 gusting 2 26.1
2019-Aug-24 09:00 274 1 gusting 3 26.1
2019-Aug-24 08:47 273 2 gusting 3 26.1
2019-Aug-24 08:30 273 26.1
2019-Aug-24 08:16 273 1 gusting 2 26.7
2019-Aug-24 07:46 273 26.7
2019-Aug-24 07:30 273 0 gusting 1 26.7
2019-Aug-24 07:18 273 0 gusting 1 26.7
2019-Aug-24 07:01 273 0 gusting 2 26.7